Location: Lachaise
(45.8833°N, 1.8500°E)
Time: 19:14:47
(UTC+00:00)

Cosmos 2154 Rocket - Pass Details

Date: 07 June 2020
Orbit: 966 x 997 km, 82.9° (Epoch: 10 July)

Event Time Altitude Azimuth Distance (km) Brightness Sun altitude
Exits shadow 01:49:51 21° 182° (S) 2,060 5.2 -16.3°
Maximum altitude 01:54:17 83° 97° (E) 989 4.0 -15.9°
Drops below altitude 10° 02:00:32 10° 10° (N) 2,724 7.5 -15.4°
Sets 02:03:03 0° 10° (N) 3,672 8.4 -15.1°
